Temp
13 14 15 16 17 17 18 14 14 17 19 14 11 15 18 20 22 21 22 21 22 20 20 18 18 18 18 16 18 19 18 15 14 19 19 20 20 19 16 12 16 10 10 13
13 14 15 16 17 17 18 12 13 17 18 12 10 16 20 21 22 22 22 22 21 20 18 17 18 17 17 17 17 18 18 15 13 16 17 18 20 18 14 12 10 13 10 13
13 14 15 16 17 18 19 12 12 12 11 12 16 18 20 21 21 22 21 21 20 20 18 16 16 17 18 17 17 14 16 15 15 14 17 17 18 18 16 14 10 12 11 16
13 14 14 16 17 18 19 12 13 13 13 14 15 18 20 20 21 21 21 21 21 19 18 17 16 17 17 17 16 16 15 15 16 15 15 17 17 17 15 15 14 14 14 14
14 14 15 16 17 17 17 13 13 12 12 15 16 16 18 19 20 21 21 19 18 19 18 17 16 16 17 18 17 15 13 12 15 15 13 13 16 15 14 14 15 14 14 13
14 14 15 16 17 17 16 15 14 13 11 13 14 14 18 19 19 18 18 17 15 15 16 15 14 14 14 15 15 13 12 10 10 12 10 12 11 13 15 16 16 15 13 13
14 13 15 16 17 19 19 17 14 12 11 13 15 17 19 18 19 18 17 16 15 17 13 14 13 12 12 13 12 13 10 8 5 8 8 11 15 15 15 15 15 14 12 11
13 13 15 16 17 19 18 18 15 11 8 13 17 16 15 15 14 15 15 15 14 13 12 10 13 9 11 11 11 11 11 7 6 7 9 12 16 15 14 14 14 12 12 11
13 14 15 16 17 19 19 17 17 12 11 14 16 15 16 13 13 13 15 14 13 11 6 8 10 12 14 13 13 11 9 7 7 6 8 9 13 14 14 15 11 11 11 10
13 14 15 16 18 19 20 17 16 15 11 13 16 14 14 12 12 11 14 15 14 11 4 5 8 11 12 12 11 8 7 4 6 1 5 9 11 14 15 13 12 10 10 10
13 14 15 16 17 18 18 15 16 17 9 13 14 15 14 12 12 11 12 12 10 6 8 7 6 5 9 10 11 10 9 8 7 6 5 11 12 13 13 12 11 11 9 9
13 14 15 16 17 18 18 17 16 18 11 12 14 14 15 15 15 11 11 13 11 10 7 5 6 5 8 8 10 11 11 10 9 10 10 12 11 13 12 10 10 9 9 8
13 14 15 16 17 18 19 17 16 17 8 11 12 13 15 16 16 16 12 8 11 10 8 7 7 7 5 8 8 11 11 11 9 11 13 11 11 12 12 10 10 8 8 8
13 14 14 15 16 17 18 17 15 16 6 7 10 14 14 15 16 17 17 12 10 7 6 5 6 6 8 6 9 8 10 11 12 9 11 11 12 10 10 9 8 8 9 9
13 13 14 14 15 16 17 16 13 15 13 8 7 12 13 14 16 16 15 13 10 8 6 5 7 4 6 5 5 7 10 12 9 11 12 12 12 11 8 8 8 9 9 8
12 13 13 14 14 16 16 10 14 14 14 8 9 9 10 12 13 13 12 11 9 8 7 5 5 8 7 8 9 10 11 12 12 12 11 11 11 8 8 9 9 9 8 8
11 12 13 14 14 15 11 10 11 13 14 6 8 6 8 9 9 7 8 8 8 9 6 5 6 7 8 7 8 11 11 11 11 11 9 9 8 8 9 9 8 7 6 6
11 11 12 12 13 13 11 11 12 13 11 5 6 6 6 9 6 7 5 6 7 7 7 6 7 6 6 8 9 10 11 11 11 9 9 10 8 8 8 7 7 6 5 4
11 11 12 12 12 9 10 11 12 13 12 6 5 7 8 6 6 4 4 5 7 6 7 6 6 7 8 10 10 11 11 11 11 8 8 8 8 7 7 6 5 4 4 4
11 12 10 4 7 8 10 11 6 5 5 4 5 5 7 7 4 5 5 4 8 8 6 7 6 8 7 8 7 8 9 9 7 7 7 6 6 6 4 4 4 4 4 3
10 6 4 7 8 9 4 6 6 7 7 6 5 5 7 5 7 6 3 6 5 9 6 8 7 7 6 6 6 6 6 6 6 7 5 4 3 2 2 3 3 4 3 3
8 7 7 8 5 4 6 7 6 6 7 5 6 5 6 4 5 6 5 6 6 7 5 7 7 6 5 5 4 4 4 3 3 2 2 2 3 3 3 3 3 3 3 2
8 6 4 6 4 8 8 9 7 7 4 4 4 5 3 4 4 5 5 7 7 4 7 7 6 5 5 4 4 3 3 3 3 3 3 4 3 3 3 3 3 3 3 3
4 5 6 6 6 5 5 5 5 3 3 3 3 4 4 3 5 4 7 5 5 7 6 4 5 4 3 3 2 3 2 1 3 3 3 3 3 3 3 3 3 3 2 2
3 3 4 3 2 2 2 2 2 2 2 2 3 3 4 4 5 4 4 5 6 5 4 4 3 2 2 3 2 2 1 1 2 3 3 3 3 3 2 3 2 2 2 2
3 3 3 3 4 3 3 3 3 2 2 2 3 4 4 4 4 4 4 5 5 4 4 2 2 2 2 1 2 2 2 2 2 2 2 2 2 2 2 3 3 3 2 2
4 3 2 2 3 3 3 2 2 2 3 4 4 1 3 3 3 4 4 4 4 3 3 1 3 3 2 2 2 2 2 2 3 2 2 2 2 2 2 2 3 3 2 2
Height
735 736 738 741 745 749 756 759 775 765 765 785 797 793 779 767 766 762 766 770 774 784 788 800 803 807 804 803 800 807 808 827 844 822 813 808 809 818 831 862 850 877 878 855
732 733 735 738 742 747 751 764 769 765 764 798 805 783 772 767 767 768 769 773 773 777 792 806 805 806 804 803 804 808 809 828 853 839 827 816 816 819 835 846 861 856 883 856
728 730 731 736 740 745 749 762 778 774 772 779 781 779 775 774 766 768 769 773 774 782 794 799 808 808 804 803 804 809 809 825 831 844 829 825 824 822 830 838 867 855 857 834
724 726 729 733 737 743 746 757 765 763 782 780 778 775 774 776 777 769 770 774 776 784 798 802 809 807 806 805 806 808 814 827 825 831 830 824 823 824 832 834 837 846 836 837
722 725 728 731 735 742 745 757 760 764 771 769 775 779 777 777 775 773 777 783 786 783 795 796 808 806 807 806 808 813 821 839 829 833 835 836 829 828 832 833 830 833 830 833
721 724 725 728 734 741 744 748 749 752 777 775 779 781 774 774 772 779 777 783 792 797 794 794 798 800 803 804 810 820 828 843 850 850 852 843 850 829 824 819 817 820 836 824
721 723 724 727 733 738 740 743 746 759 780 774 773 768 765 772 773 780 782 783 790 796 795 795 800 807 812 812 818 816 835 854 873 869 867 866 818 812 811 814 814 818 821 823
722 723 724 726 732 736 739 741 744 754 784 770 764 769 774 777 781 785 787 787 787 790 798 820 821 838 828 829 828 827 826 853 872 875 868 839 811 811 815 815 817 817 820 824
722 724 724 727 731 734 740 740 741 743 764 770 761 770 771 782 788 793 791 791 791 796 824 833 842 838 825 831 827 832 837 846 857 878 874 864 816 806 804 807 829 812 816 823
723 725 725 727 729 734 734 739 739 740 761 762 761 769 773 777 786 797 793 793 796 800 837 854 850 836 826 835 838 851 854 870 867 903 883 843 813 804 804 826 822 808 811 816
725 725 725 728 730 735 738 740 739 740 759 762 761 761 767 774 779 793 793 801 807 821 829 843 847 858 836 833 825 834 841 849 862 868 879 837 802 806 814 803 799 801 807 809
726 726 727 729 731 733 735 739 741 741 748 762 762 763 763 763 765 776 789 788 794 800 823 840 839 849 836 838 834 820 829 820 830 829 820 799 798 791 791 792 795 800 802 805
727 728 729 731 732 734 735 739 742 744 757 765 764 767 766 765 765 766 781 792 786 793 796 816 826 832 836 836 832 815 811 809 822 814 794 796 795 791 790 791 793 795 797 803
729 730 731 733 734 736 737 740 745 746 758 780 775 767 768 769 767 766 766 770 780 789 797 814 822 828 816 829 817 820 808 807 803 812 798 793 790 788 787 789 791 793 796 799
731 733 735 737 738 740 741 744 748 749 754 777 781 771 771 770 768 767 768 771 779 791 805 813 814 818 817 823 825 821 800 795 809 797 786 785 784 781 784 788 789 791 794 801
735 736 738 740 742 743 744 751 753 753 752 766 784 779 776 774 772 772 774 776 781 787 795 806 805 798 806 814 810 792 782 780 779 781 778 780 780 781 783 786 789 792 796 800
739 740 742 744 745 746 750 757 758 755 755 767 786 791 780 778 777 780 782 782 785 787 797 803 802 799 800 810 806 777 776 774 773 774 779 781 781 781 782 786 790 794 799 804
743 744 746 748 750 753 756 758 758 758 758 767 791 795 790 782 789 791 789 791 789 793 796 800 799 803 805 800 779 774 771 771 771 773 774 774 776 779 784 787 792 799 805 811
746 748 749 752 754 758 761 761 761 760 765 781 791 789 792 787 793 795 795 795 799 800 799 801 800 801 796 778 775 773 772 772 771 775 776 777 779 784 789 794 796 803 811 814
749 751 752 764 763 762 763 764 767 770 774 779 790 791 791 789 797 798 801 802 796 797 800 797 799 789 786 782 781 776 774 772 774 778 781 784 787 789 793 800 806 810 814 815
751 756 763 764 764 764 769 778 782 782 784 786 790 790 789 792 794 797 805 802 805 795 802 797 798 794 793 788 784 778 775 775 778 778 783 790 796 801 806 809 810 811 811 813
755 756 763 765 769 775 779 782 787 787 786 792 790 792 790 793 792 796 802 802 804 797 803 799 794 798 797 795 794 791 789 788 791 793 796 801 803 809 811 812 813 813 813 811
758 762 770 769 781 775 773 774 785 787 794 794 795 793 797 795 795 799 801 796 798 803 798 793 799 800 800 800 799 799 798 797 800 803 805 806 807 810 811 812 812 811 810 810
765 771 776 778 782 786 787 787 789 797 796 796 797 798 799 801 799 802 795 802 803 795 800 810 804 806 807 807 807 807 809 808 806 806 808 809 810 810 810 810 809 810 809 808
774 778 783 789 792 792 794 795 795 797 797 797 798 800 800 800 801 804 806 802 800 803 811 808 812 812 812 811 811 812 812 813 814 814 812 810 809 809 810 810 809 808 806 804
779 784 787 791 790 792 793 795 796 797 798 798 799 799 801 803 803 807 805 804 807 809 810 812 814 813 814 814 814 815 815 814 815 814 813 812 810 810 809 808 806 805 804 803
782 788 789 790 791 792 794 795 796 797 798 798 800 811 807 807 809 805 803 806 809 810 810 811 811 812 814 814 814 814 813 813 813 812 812 811 810 809 807 805 804 802 801 798
Wind_Speed
19 16 16 20 25 25 18 6 3 1 5 4 1 3 4 3 2 6 4 4 2 5 4 4 3 4 1 4 1 2 2 5 3 1 5 3 1 3 4 4 2 1 3 5
18 15 16 22 27 28 11 4 2 3 1 4 2 4 3 1 2 3 3 2 2 2 5 6 2 3 0 4 3 3 2 2 3 6 6 5 3 3 5 5 3 4 4 5
17 14 16 25 30 27 11 4 3 3 3 1 7 3 2 1 4 3 3 3 5 4 5 6 4 3 2 2 3 2 4 3 5 6 4 3 3 2 4 5 3 3 6 3
16 14 17 26 31 24 8 2 4 5 4 2 4 4 3 3 2 1 3 3 2 4 4 3 4 2 2 3 1 3 4 3 2 3 4 2 1 3 5 6 5 5 5 7
15 14 18 25 31 21 4 4 4 3 2 6 6 4 5 6 2 4 1 5 3 2 6 6 8 6 3 3 3 3 4 1 1 1 4 5 3 5 7 6 4 7 5 5
15 13 17 25 31 21 4 3 2 5 3 4 5 5 6 8 6 5 3 9 5 4 2 4 5 3 5 5 5 3 3 4 3 3 4 4 6 8 8 5 4 6 6 8
14 12 16 26 31 24 5 4 4 4 2 3 6 7 3 6 5 7 2 5 6 4 6 4 6 11 11 10 8 3 5 4 2 2 3 2 6 3 4 6 4 3 2 7
14 12 16 23 32 19 5 5 4 3 2 1 3 7 6 7 6 4 3 4 0 9 5 5 5 5 6 5 7 6 3 5 3 4 3 5 4 5 7 7 7 7 6 5
14 12 15 19 24 20 11 5 5 4 6 3 4 5 4 5 4 4 3 5 8 6 4 4 4 4 4 1 1 4 5 6 4 2 4 6 6 3 5 4 5 8 8 8
14 13 15 15 18 18 9 4 4 5 4 2 2 4 6 6 5 4 2 4 2 3 3 3 3 3 3 4 5 3 2 3 5 2 4 8 6 4 3 5 7 7 10 10
13 13 14 14 17 18 11 8 5 3 3 1 2 1 5 4 3 5 5 4 4 3 4 3 4 3 5 2 4 6 7 6 4 3 1 8 7 3 8 6 2 9 9 9
13 13 13 13 13 13 11 6 11 13 5 3 4 10 9 3 6 6 1 5 4 5 4 1 3 2 2 2 3 2 3 7 5 9 6 4 6 4 5 6 6 7 8 5
14 13 13 12 11 9 8 12 7 7 4 4 4 3 7 12 3 4 5 2 5 4 2 4 3 3 4 4 5 3 4 4 2 2 5 8 8 5 3 6 5 5 6 7
14 13 13 12 11 11 11 9 7 9 4 4 4 5 4 9 6 3 3 11 8 7 3 3 3 3 4 3 3 4 4 5 5 5 7 5 7 7 5 5 6 7 9 7
13 13 13 13 13 14 16 18 14 8 5 4 2 3 8 11 7 11 14 19 6 3 2 2 3 2 3 1 2 3 5 7 4 7 8 5 5 5 7 9 10 10 9 6
13 12 12 11 13 12 4 4 8 9 5 4 2 4 5 11 12 14 10 6 3 3 4 3 2 2 3 4 4 7 5 5 6 6 5 4 3 5 6 7 8 7 9 12
13 12 11 8 7 4 7 4 2 5 4 3 3 3 4 5 5 4 3 6 2 2 2 2 3 1 3 3 5 7 8 8 7 4 6 1 4 5 7 7 10 18 18 19
14 14 16 17 16 12 8 10 8 6 9 4 3 3 3 7 2 2 4 2 2 4 2 1 2 1 2 3 9 6 7 5 2 6 3 3 6 7 8 18 19 13 10 8
15 14 12 6 5 4 2 5 8 12 7 3 2 4 3 3 2 1 3 2 2 2 1 1 3 1 4 4 4 5 4 4 3 4 3 6 8 11 12 12 12 10 5 3
12 5 5 3 4 3 3 2 4 5 3 3 2 1 1 2 1 2 2 2 1 1 3 1 2 3 4 3 7 7 7 5 7 5 5 8 10 11 13 10 6 5 4 4
3 3 2 2 3 2 4 3 3 1 3 3 1 2 3 2 3 2 1 1 0 2 3 2 2 2 4 10 9 8 8 10 10 13 17 16 14 11 6 5 7 2 4 3
7 12 7 3 4 3 5 2 1 2 2 2 1 0 1 0 1 3 0 2 1 5 2 1 2 1 5 9 10 12 16 21 19 24 20 17 15 11 6 3 0 3 3 3
6 5 4 2 3 2 4 6 1 2 1 2 2 1 1 2 3 3 2 3 3 1 2 2 1 3 6 6 5 9 13 20 18 15 14 13 9 6 4 1 2 5 7 7
3 3 3 1 2 2 1 2 2 1 1 1 1 2 2 1 2 1 2 0 0 2 1 2 2 5 5 7 6 6 7 9 11 9 9 6 5 3 3 4 5 7 9 10
3 3 2 2 2 2 2 1 2 1 1 1 2 2 1 1 2 1 2 1 1 2 1 2 2 4 5 4 6 7 7 8 6 1 3 3 3 2 4 6 7 8 11 12
3 3 3 1 3 2 2 1 1 1 1 1 1 2 2 1 1 2 1 2 1 1 1 1 3 3 4 4 4 4 5 2 2 2 3 4 6 6 7 9 10 12 13 15
3 2 2 2 3 2 1 1 1 1 1 1 1 3 2 2 2 1 1 2 1 1 2 1 1 1 3 5 4 2 1 2 5 6 6 6 7 8 8 9 14 16 17 17
Wind_Direction
194 193 194 187 176 166 164 116 100 125 153 67 54 175 214 278 332 28 54 99 84 146 117 81 101 139 104 331 238 74 36 121 96 206 292 293 163 124 113 106 209 36 142 275
188 189 187 181 174 166 148 114 128 38 146 138 275 272 276 44 62 40 41 75 72 92 120 99 91 96 314 354 73 138 145 35 69 354 351 351 104 62 92 105 90 197 132 263
181 180 180 178 173 171 148 106 100 343 49 133 148 187 234 95 23 62 72 107 80 85 61 29 136 125 24 35 93 133 106 98 149 183 201 175 152 117 106 113 123 194 225 216
172 170 177 177 175 174 152 90 212 180 187 236 167 156 181 136 120 59 34 46 72 123 107 73 108 128 129 32 10 76 87 114 88 53 23 52 147 177 173 191 189 173 252 215
161 169 172 174 174 168 105 139 138 41 131 139 141 143 205 155 179 140 84 109 28 93 146 174 191 141 165 188 35 69 15 159 89 103 5 8 279 250 242 234 221 255 249 245
155 163 167 171 177 173 131 172 93 106 295 116 111 199 183 200 134 26 42 142 101 50 335 108 86 72 93 131 129 109 78 117 90 254 346 338 332 218 193 198 198 176 187 220
149 151 159 168 174 177 155 155 112 95 202 144 179 165 159 166 181 142 79 81 97 136 132 105 44 49 55 56 35 85 115 91 72 180 21 7 244 312 231 197 214 195 126 175
143 142 149 166 175 181 168 154 145 130 120 173 89 116 119 91 65 68 71 344 351 131 54 64 49 353 21 359 29 20 73 118 99 139 198 300 282 206 164 171 252 194 175 159
135 132 137 150 174 185 197 158 174 119 118 247 125 123 164 133 108 34 46 31 69 65 78 74 135 195 202 249 85 52 57 71 108 126 150 218 240 247 131 98 298 185 162 174
128 125 128 137 152 167 180 121 152 93 105 286 148 151 162 122 97 106 123 151 71 43 71 84 139 226 182 179 179 198 45 15 160 144 229 286 233 197 125 115 235 164 176 180
121 116 121 128 137 150 171 104 82 101 100 322 9 61 133 114 114 135 191 66 342 45 73 123 197 154 220 132 186 180 171 156 198 102 57 276 165 85 168 207 206 181 183 184
118 109 110 119 135 140 137 99 87 80 83 150 73 75 64 54 161 128 40 159 164 165 92 127 127 157 167 147 233 113 240 190 183 186 214 246 225 215 236 173 158 196 179 162
115 105 101 106 116 133 122 111 102 82 84 8 48 8 31 44 75 161 119 297 153 135 129 144 152 164 134 170 237 198 245 160 213 93 255 233 244 263 228 194 204 154 144 144
110 102 97 97 102 111 125 103 77 82 97 109 281 3 46 17 50 127 128 131 92 96 72 106 139 156 187 208 207 173 203 141 206 257 281 284 262 236 209 182 155 140 146 156
109 104 103 101 105 107 107 91 61 66 115 157 244 330 15 21 56 96 126 119 107 112 82 104 207 160 116 112 71 259 191 198 168 236 225 199 231 209 175 162 168 157 152 123
110 107 109 122 129 124 100 42 40 46 73 96 108 316 352 24 79 83 66 69 91 101 136 196 234 250 116 164 210 252 238 228 205 241 221 214 302 187 155 160 153 144 132 129
108 104 101 116 141 99 71 129 17 36 67 83 59 347 329 353 35 41 23 32 55 99 127 187 176 197 121 164 223 244 246 248 245 194 124 124 194 194 167 130 108 108 104 105
112 107 104 103 100 92 68 55 61 62 88 63 111 270 9 11 21 28 355 36 19 26 112 86 189 52 123 245 242 258 258 298 280 192 248 236 138 132 114 121 115 105 100 140
117 112 107 90 48 48 51 64 77 58 70 115 100 148 217 10 50 37 24 31 38 316 133 239 114 196 221 258 324 306 295 224 260 128 108 116 115 108 111 102 84 107 160 153
122 88 52 30 352 77 70 40 27 19 348 40 101 93 131 70 22 18 61 1 160 222 246 89 176 255 296 339 299 260 273 290 150 119 134 110 110 105 98 106 148 140 140 182
66 64 85 76 34 75 33 61 66 22 30 14 66 157 136 349 112 170 114 169 328 238 257 194 279 287 311 341 358 22 53 68 59 78 84 86 88 90 102 84 78 146 220 243
97 110 100 55 36 47 87 81 31 58 183 348 75 317 70 222 106 99 220 164 121 244 151 146 260 342 29 39 41 56 70 75 73 74 78 81 90 90 101 124 192 284 304 330
82 59 56 36 341 83 170 162 188 131 360 354 15 51 6 6 37 72 103 187 223 85 194 221 62 43 51 44 71 73 83 95 98 101 100 98 97 85 72 42 325 336 330 327
65 67 82 46 104 54 88 72 89 115 104 68 51 64 63 345 58 73 188 127 52 205 218 262 12 21 67 53 46 53 25 22 104 127 121 124 122 86 42 10 348 323 306 308
79 75 91 83 112 75 72 77 109 41 88 66 69 65 68 23 86 27 83 51 284 58 80 8 18 39 78 43 56 47 44 36 40 82 68 62 51 13 338 349 337 327 325 321
63 57 98 105 110 95 112 106 73 165 123 99 73 111 86 59 106 74 242 118 56 124 147 187 137 106 82 73 110 217 245 249 268 349 8 356 0 353 340 337 348 353 342 330
71 55 39 90 74 87 110 120 161 142 79 80 98 83 184 61 79 119 45 126 109 32 329 335 22 69 167 195 204 232 279 22 8 356 356 346 343 333 329 337 339 335 327 322